[[{"header":{"parameterUnit":"m.s-1","parameterCategory":1,"la1":30.2991,"la2":30.254,"lo1":-89.0895,"lo2":-89.0444,"dy":0.0017,"dx":0.0017,"nx":28,"ny":28,"refTime":"2024-11-25T09:00:00:Z","depth":0,"parameterNumber":2,"parameterNumberName":"U-component_of_WINDS"},"data":[0,0,0,0,0,0,0,0,0,0,0,0,0,0,0,0,0,0,0,0,0,0,0,0,0,0,0,0,0,0,0,0,0,0,0,0,0,0,0,0,0,0,0,0,0,0,0,0,0,0,0,0,0,0,0,0,0,0,1.1801,1.1803,0,1.1903,1.1904,1.1905,1.1932,1.1931,1.1931,1.193,1.2031,1.2034,1.2038,0,0,0,0,0,0,0,0,0,0,0,0,0,1.1629,1.1632,1.1801,1.1803,1.1804,1.1903,1.1904,1.1906,1.1932,1.1931,1.1931,1.193,1.203,1.2034,1.2038,0,0,0,0,0,0,0,0,0,0,0,0,0,1.1714,1.1633,1.1801,1.1829,1.1833,1.1903,1.1904,1.1906,1.1932,1.1931,1.193,1.193,1.2029,1.2034,1.2038,1.2087,0,0,1.2053,1.2055,0,0,0,0,0,0,0,0,1.171,1.1721,1.1824,1.1827,1.1831,1.1904,1.1881,1.1966,1.1932,1.1894,1.193,1.1929,1.1989,1.1997,1.2018,1.2092,1.2096,1.2054,1.2057,1.2059,1.206,0,0,0,0,0,0,0,1.1704,1.1716,1.1841,1.1825,1.183,1.1836,1.1847,1.1897,1.1946,1.1898,1.19,1.1912,1.1991,1.2014,1.2021,1.2097,1.2054,1.2058,1.2061,1.2063,1.2217,1.2218,0,0,0,0,0,0,1.1693,1.1711,1.1838,1.1845,1.1767,1.184,1.1852,1.1882,1.1945,1.1954,1.1912,1.1912,1.2006,1.2015,1.2025,1.2087,1.2059,1.2063,1.2066,1.2216,1.2217,1.2219,0,0,0,0,0,0,1.1689,1.1704,1.1834,1.1779,1.1796,1.1844,1.1876,1.1884,1.1906,1.1956,1.1965,1.1926,1.2005,1.2018,1.2072,1.2091,1.2066,1.207,1.2215,1.2216,1.2218,1.221,0,0,0,0,0,0,1.1684,1.1703,1.1722,1.1779,1.1799,1.188,1.1878,1.1887,1.1915,1.1916,1.1972,1.198,1.2006,1.2064,1.2077,1.2097,1.2074,1.2213,1.2215,1.2217,1.2209,1.2212,1.2214,0,0,0,0,0,1.1678,1.1714,1.1723,1.1738,1.1824,1.1881,1.1892,1.1922,1.1916,1.1936,1.1968,1.1978,1.2087,1.207,1.2084,1.2106,1.2212,1.2215,1.2217,1.2208,1.2211,1.2214,0,0,0,0,0,0,1.1657,1.1722,1.1732,1.1788,1.1829,1.1885,1.1911,1.1924,1.1966,1.1965,1.1999,1.2012,1.2064,1.209,1.207,1.2157,1.2149,1.2155,1.2138,1.2141,1.2143,1.2136,1.2078,0,0,0,0,0,1.1659,1.1701,1.1755,1.18,1.182,1.1862,1.1888,1.1908,1.1951,1.1968,1.2004,1.2045,1.2088,1.2116,1.2159,1.2213,1.2226,1.2235,1.2238,1.2239,1.2244,1.2276,1.2281,1.2227,1.2227,1.2227,0,0,1.1663,1.1704,1.1728,1.1797,1.183,1.1873,1.1876,1.192,1.1952,1.1974,1.2028,1.2056,1.2104,1.2159,1.2185,1.2182,1.2261,1.2243,1.2244,1.2247,1.2279,1.2284,1.2289,1.2229,1.2229,1.2228,0,0,1.1692,1.1727,1.1769,1.1803,1.1855,1.1883,1.1893,1.1949,1.1969,1.2023,1.2041,1.2079,1.2153,1.2187,1.2214,1.2259,1.227,1.2271,1.2283,1.2314,1.2319,1.2323,1.2339,1.2345,1.2276,1.2276,1.2276,0,1.1691,1.1756,1.1788,1.1833,1.1862,1.1886,1.1929,1.196,1.2023,1.2043,1.2039,1.2134,1.2168,1.2232,1.2243,1.2264,1.2276,1.2265,1.2316,1.232,1.2324,1.234,1.2346,1.2276,1.2276,1.2276,1.2276,0,1.1752,1.1797,1.1824,1.1886,1.1919,1.1962,1.2,1.203,1.2047,1.2075,1.2132,1.2173,1.2226,1.2242,1.2259,1.2309,1.2306,1.2309,1.2302,1.2328,1.2345,1.2351,1.2275,1.2275,1.2276,1.2276,0,0,1.1769,1.185,1.1859,1.1889,1.1949,1.1984,1.2028,1.2081,1.2106,1.2148,1.2187,1.225,1.2253,1.2284,1.2304,1.2332,1.2366,1.2331,1.2333,1.2337,1.2425,1.2423,1.243,1.2374,1.2375,1.2376,1.2422,0,1.1806,1.1888,1.1919,1.1985,1.2028,1.2052,1.2091,1.2131,1.216,1.2199,1.223,1.2275,1.2275,1.2294,1.2323,1.2356,1.2384,1.2353,1.241,1.2411,1.2397,1.2438,1.2436,1.2477,1.2428,1.2429,1.243,0,1.1861,1.1906,1.1977,1.2033,1.2052,1.2087,1.2138,1.2176,1.2223,1.2242,1.2277,1.2297,1.2344,1.2335,1.2401,1.2379,1.2405,1.2425,1.2427,1.2433,1.2422,1.2446,1.249,1.2496,1.244,1.2439,1.2438,0,1.1867,1.1946,1.1999,1.2023,1.209,1.2114,1.2142,1.2189,1.2219,1.2264,1.2284,1.2333,1.236,1.2398,1.2431,1.2421,1.2494,1.2487,1.2511,1.251,1.2525,1.2524,1.2574,1.2541,1.2541,1.2541,1.2541,0,1.1906,1.1948,1.2003,1.2035,1.2084,1.212,1.2167,1.2197,1.2239,1.2278,1.2301,1.2337,1.2377,1.2419,1.2444,1.2496,1.2508,1.2524,1.253,1.2522,1.252,1.2539,1.2537,1.2542,1.2542,1.2542,1.2541,0,1.1921,1.1959,1.2019,1.2078,1.2094,1.2127,1.2178,1.2211,1.2241,1.229,1.2303,1.235,1.24,1.2436,1.25,1.2517,1.2573,1.2579,1.2557,1.2561,1.2583,1.258,1.2647,1.2658,1.2617,1.2617,1.2618,0,1.1943,1.1977,1.204,1.2069,1.2098,1.2143,1.2175,1.2212,1.2243,1.2301,1.2327,1.2379,1.2422,1.2501,1.254,1.2589,1.2597,1.2617,1.2605,1.2596,1.2598,1.2596,1.26,1.2619,1.2619,1.2619,1.262,0,1.1978,1.1996,1.2041,1.2094,1.2131,1.2174,1.2216,1.2238,1.2283,1.2317,1.237,1.2403,1.247,1.2521,1.2575,1.2605,1.262,1.2624,1.2632,1.2624,1.261,1.2619,1.2563,1.2622,1.2621,1.2621,1.2621,1.2621,1.1998,1.203,1.208,1.213,1.2167,1.2207,1.2241,1.2276,1.2321,1.2378,1.2397,1.2452,1.25,1.2574,1.2604,1.2647,1.2646,1.2658,1.2661,1.2663,1.2663,1.2604,1.2657,1.2657,1.2657,1.2657,1.2657,0,1.2035,1.207,1.2115,1.2176,1.2215,1.2227,1.2276,1.2308,1.2356,1.24,1.2443,1.2503,1.2554,1.2598,1.2651,1.2677,1.2685,1.2689,1.2688,1.2694,1.266,1.2648,1.2682,1.2682,1.2682,1.2682,1.2682,1.2682,1.2059,1.2114,1.2138,1.2212,1.2245,1.23,1.2327,1.2364,1.2399,1.2467,1.2509,1.2538,1.2583,1.2639,1.2686,1.2698,1.2716,1.2719,1.2732,1.27,1.2697,1.2694,1.2683,1.2722,1.2723,1.2763,1.2763,1.2763]},{"header":{"parameterUnit":"m.s-1","parameterCategory":1,"la1":30.2991,"la2":30.254,"lo1":-89.0895,"lo2":-89.0444,"dy":0.0017,"dx":0.0017,"nx":28,"ny":28,"refTime":"2024-11-25T09:00:00:Z","depth":0,"parameterNumber":3,"parameterNumberName":"V-component_of_WINDS"},"data":[0,0,0,0,0,0,0,0,0,0,0,0,0,0,0,0,0,0,0,0,0,0,0,0,0,0,0,0,0,0,0,0,0,0,0,0,0,0,0,0,0,0,0,0,0,0,0,0,0,0,0,0,0,0,0,0,0,0,-3.6582,-3.6584,0,-3.67,-3.6701,-3.6702,-3.6698,-3.6697,-3.6695,-3.6693,-3.6811,-3.6815,-3.682,0,0,0,0,0,0,0,0,0,0,0,0,0,-3.6352,-3.6356,-3.6582,-3.6584,-3.6585,-3.67,-3.6701,-3.6703,-3.6698,-3.6697,-3.6695,-3.6693,-3.6809,-3.6815,-3.682,0,0,0,0,0,0,0,0,0,0,0,0,0,-3.6459,-3.6358,-3.6582,-3.6597,-3.6599,-3.6699,-3.6701,-3.6703,-3.6699,-3.6696,-3.6694,-3.6692,-3.6807,-3.6814,-3.6821,-3.6913,0,0,-3.6842,-3.6845,0,0,0,0,0,0,0,0,-3.6453,-3.6467,-3.6593,-3.6596,-3.6599,-3.6682,-3.6663,-3.6773,-3.67,-3.6661,-3.6693,-3.6691,-3.677,-3.678,-3.6807,-3.6918,-3.6923,-3.6843,-3.6847,-3.685,-3.6852,0,0,0,0,0,0,0,-3.6446,-3.6462,-3.6629,-3.6595,-3.6599,-3.6597,-3.661,-3.6684,-3.6727,-3.6664,-3.6664,-3.6678,-3.6771,-3.68,-3.681,-3.6925,-3.6843,-3.6849,-3.6853,-3.6856,-3.7119,-3.7121,0,0,0,0,0,0,-3.6435,-3.6456,-3.6625,-3.6632,-3.6519,-3.6603,-3.6617,-3.6658,-3.6727,-3.6735,-3.668,-3.6678,-3.6789,-3.6801,-3.6814,-3.6926,-3.685,-3.6857,-3.6861,-3.7116,-3.7119,-3.7122,0,0,0,0,0,0,-3.643,-3.645,-3.662,-3.6544,-3.6566,-3.661,-3.6655,-3.6661,-3.6691,-3.6739,-3.6746,-3.6703,-3.6788,-3.6804,-3.6889,-3.693,-3.686,-3.6866,-3.7112,-3.7117,-3.7121,-3.7152,0,0,0,0,0,0,-3.6424,-3.6449,-3.6484,-3.6545,-3.657,-3.6694,-3.6658,-3.6665,-3.6703,-3.6701,-3.6762,-3.6769,-3.6787,-3.6878,-3.6896,-3.6939,-3.6871,-3.7109,-3.7114,-3.7119,-3.7147,-3.7157,-3.7165,0,0,0,0,0,-3.6416,-3.6488,-3.6486,-3.6507,-3.6616,-3.6696,-3.671,-3.673,-3.6706,-3.6743,-3.6774,-3.6767,-3.6923,-3.6887,-3.6906,-3.6952,-3.7106,-3.7113,-3.7119,-3.7144,-3.7155,-3.7165,0,0,0,0,0,0,-3.6429,-3.6496,-3.6495,-3.6589,-3.6637,-3.6695,-3.6741,-3.6742,-3.6797,-3.6792,-3.6814,-3.6827,-3.6913,-3.6941,-3.6899,-3.7045,-3.7012,-3.7022,-3.7024,-3.7035,-3.7043,-3.7035,-3.6877,0,0,0,0,0,-3.6443,-3.6504,-3.6559,-3.6636,-3.6661,-3.6697,-3.6733,-3.6744,-3.6795,-3.6815,-3.6852,-3.69,-3.696,-3.6999,-3.7057,-3.7152,-3.7165,-3.7193,-3.7201,-3.7208,-3.7217,-3.727,-3.7283,-3.7143,-3.7143,-3.7143,0,0,-3.6473,-3.6517,-3.6553,-3.664,-3.6679,-3.6741,-3.6714,-3.678,-3.6826,-3.6824,-3.6907,-3.6936,-3.6992,-3.7082,-3.7124,-3.7108,-3.7259,-3.7216,-3.7221,-3.7227,-3.7278,-3.7291,-3.7303,-3.7147,-3.7146,-3.7146,0,0,-3.6558,-3.6597,-3.6667,-3.6707,-3.6766,-3.679,-3.6807,-3.6866,-3.6885,-3.6969,-3.6969,-3.7024,-3.7126,-3.7166,-3.72,-3.7302,-3.7298,-3.732,-3.7365,-3.7417,-3.7428,-3.7438,-3.7475,-3.7488,-3.7329,-3.7329,-3.7329,0,-3.6587,-3.6681,-3.6702,-3.677,-3.6808,-3.681,-3.6881,-3.6918,-3.6993,-3.7019,-3.7001,-3.7131,-3.7168,-3.7268,-3.7293,-3.732,-3.734,-3.7313,-3.7425,-3.7435,-3.7444,-3.748,-3.7494,-3.7331,-3.7331,-3.733,-3.733,0,-3.6714,-3.6779,-3.6828,-3.6902,-3.6945,-3.7014,-3.7045,-3.7087,-3.7095,-3.7121,-3.7206,-3.7251,-3.7319,-3.7343,-3.7351,-3.7445,-3.7434,-3.742,-3.7387,-3.746,-3.7493,-3.7507,-3.7334,-3.7333,-3.7333,-3.7332,0,0,-3.681,-3.6896,-3.6913,-3.6948,-3.7014,-3.7065,-3.7133,-3.7201,-3.7236,-3.7288,-3.7346,-3.7434,-3.7422,-3.746,-3.7472,-3.7517,-3.7596,-3.7498,-3.75,-3.7515,-3.7704,-3.7714,-3.7729,-3.7594,-3.7597,-3.7599,-3.7699,0,-3.6902,-3.7026,-3.7047,-3.7155,-3.7216,-3.722,-3.7279,-3.7327,-3.7353,-3.7408,-3.7436,-3.7498,-3.7477,-3.7501,-3.7546,-3.7577,-3.7634,-3.757,-3.7649,-3.7651,-3.7635,-3.7747,-3.7758,-3.785,-3.7712,-3.7715,-3.7716,0,-3.7027,-3.7083,-3.7197,-3.7257,-3.7283,-3.7337,-3.7401,-3.7453,-3.7507,-3.7523,-3.7567,-3.7574,-3.7645,-3.7609,-3.7708,-3.7663,-3.7697,-3.7717,-3.7721,-3.7729,-3.7688,-3.7758,-3.7879,-3.7893,-3.7737,-3.7735,-3.7734,0,-3.7086,-3.7191,-3.7273,-3.7302,-3.7373,-3.7411,-3.7442,-3.7493,-3.7533,-3.7588,-3.7614,-3.7677,-3.7711,-3.7759,-3.7784,-3.7755,-3.7881,-3.7846,-3.7896,-3.7895,-3.7922,-3.792,-3.8051,-3.7943,-3.7943,-3.7943,-3.7942,0,-3.7187,-3.7257,-3.7301,-3.7351,-3.7429,-3.7454,-3.753,-3.7561,-3.7607,-3.7663,-3.7669,-3.7722,-3.775,-3.7807,-3.7826,-3.7905,-3.792,-3.7935,-3.7939,-3.7935,-3.7933,-3.7957,-3.7951,-3.7946,-3.7946,-3.7945,-3.7944,0,-3.7267,-3.7299,-3.7389,-3.745,-3.7467,-3.7522,-3.7573,-3.7622,-3.7649,-3.772,-3.7738,-3.7779,-3.7846,-3.7875,-3.7957,-3.797,-3.8061,-3.806,-3.8043,-3.8045,-3.8093,-3.8088,-3.8244,-3.8265,-3.8143,-3.8144,-3.8145,0,-3.7329,-3.7383,-3.745,-3.7489,-3.7522,-3.7584,-3.7625,-3.7651,-3.7693,-3.7759,-3.78,-3.7868,-3.7923,-3.803,-3.8067,-3.813,-3.8131,-3.8181,-3.8141,-3.8135,-3.8133,-3.8129,-3.8135,-3.8189,-3.819,-3.8191,-3.8192,0,-3.7437,-3.7451,-3.751,-3.7575,-3.7624,-3.7676,-3.7727,-3.7758,-3.7792,-3.7839,-3.7909,-3.7952,-3.8037,-3.8104,-3.817,-3.8201,-3.8202,-3.8204,-3.8219,-3.8215,-3.8203,-3.8211,-3.8064,-3.8201,-3.82,-3.8199,-3.8199,-3.8198,-3.751,-3.7559,-3.7614,-3.768,-3.7722,-3.777,-3.7819,-3.7853,-3.7911,-3.7983,-3.7995,-3.8069,-3.8122,-3.8211,-3.8245,-3.8303,-3.8291,-3.8312,-3.8317,-3.8322,-3.8326,-3.8194,-3.8315,-3.8315,-3.8315,-3.8314,-3.8314,0,-3.7619,-3.7655,-3.7715,-3.7788,-3.784,-3.7838,-3.7894,-3.7938,-3.8003,-3.8053,-3.8108,-3.8189,-3.8254,-3.8297,-3.8363,-3.8401,-3.8403,-3.8418,-3.8415,-3.8423,-3.8333,-3.8314,-3.8415,-3.8415,-3.8415,-3.8415,-3.8415,-3.8415,-3.7681,-3.7764,-3.7784,-3.7887,-3.7923,-3.7997,-3.803,-3.8074,-3.8114,-3.8204,-3.8259,-3.8287,-3.8334,-3.8404,-3.8464,-3.8475,-3.8499,-3.8514,-3.8524,-3.8439,-3.8429,-3.8419,-3.8401,-3.8519,-3.8519,-3.8609,-3.861,-3.861]}]]